map of YYR home
Great Circle Mapper logo
YYR - Airport
Location
City:  Goose Bay, Newfoundland and Labrador, Canada
ICAO / IATA:CYYR / YYR

Details
Type:Airport (Airfield)
Use:Public/Civil, Military
Latitude:5319'09"N (53.319168)
Longitude:6025'33"W (-60.425832)
Datum:WGS 1984
Elevation:160 ft (49 m)
Runways:2
Longest:11046 × 209 ft (3367 × 63.5 m), paved

Time
Time Zone:UTC-3:30 (DST-2:30)
Local Time:

Weather
METAR:CYYR 310900Z 25010KT 15SM FEW048 FEW220 01/M05 A2970 RMK SC1CI0 SLP059
TAF:CYYR 310530Z 3106/0106 27012KT P6SM FEW050 SCT220
BECMG 3113/3115 26018G28KT
FM311700 27020G30KT P6SM SCT040
BECMG 3120/3122 26015KT
RMK NXT FCST BY 311200Z

Related Locations
Nearby:
Farthest:YWKS: 11465 mi / 18451 km
Wilkins Runway (Casey), Upper Peterson Glacier, AQ

Find:

   beyond  
but within

Other Information
Maps:
NOTAMs:
Links:
Sources:

  
flag of Canada
flag of Newfoundland and Labrador
  

Airport Diagram

Airport diagram for YYR

Airport diagram PDF

Sectional Chart

Flight Planning
at skyvector.com

Satellite Image

Google Maps Satellite View

 

Copyright © 2004-2014 Karl L. Swartz. All rights reserved.
The Great Circle Mapper name and logo are trademarks of the Great Circle Mapper.
All other trademarks mentioned herein belong to their respective owners.
Please see credits for attibutions and further copyright information.

  Follow gcmap on Facebook Follow gcmap on Twitter

hCard Microformat

Geo Microformat